PILOTS ONLINE: 208    ATC ONLINE: 16

EGXW

RAF Waddington

Location

IATA WTN
City Waddington
Country  United Kingdom
Latitude 53° 9' 58" N
Longitude 0° 31' 25" W
Elevation 231 ft
Type Medium Airport

Map

Weather

METAR
2014/10/21 07:50
EGXW 210750Z 28020G30KT 9999 FEW022 BKN050 11/08 Q0996 BLU TEMPO 29026G40KT BLU
TAF
2014/09/10 12:03
TAF EGXW 101027Z 1012/1024 14005KT 9999 SCT030

Runways

02/20 9000 ft / 200 ft

Outbound flights

Callsign Flying to Pilot ATD/STD ETA Aircraft

Inbound flights

Callsign Flying from Pilot ATD ETA Aircraft